DELTA 1 R/B, 2661

Orbit data source: Space-Track

DELTA 1 R/B, 2661 is space debris in SSO originally from a launch on Thu, 26 Jan 1967 UTC launched from the Air Force Western Test Range (AFWTR). Debris objects in space refer to the collection of defunct objects orbiting the Earth. Examples of debris include non-operational satellites, rocket bodies, and fragments generated from explosions, collisions, or faulty payload assembly.

Loading next visibility...
Identifier
2661, 1967-006B
Orbit
SSO
Country
Flag of USUS
Related business
Manufacturer
ABL
Mission
Spacecraft
Bus & Motor
ALTAIR, Unknown motor
Mass
33 kg wet, 33 kg dry
Launch date (UTC)
1967-01-26 (59 years ago)
Launch vehicle
Unknown
Launch site
Air Force Western Test Range (AFWTR)
Object type
Payload
Rocket body
Debris
Shape & HBR
Unknown
Radar Cross Section
Medium (>0.1 m² and <1 m²)

Expand to show TLE details & history
Last TLE update: 7 hours ago

TLE from 7 hours ago
0 DELTA 1 R/B
1  2661U 67006B   25299.46460853 -.00000021  00000-0  13683-3 0  9995
2  2661 101.9531   6.2972 0065115 154.3470 217.9209 12.68017281718535
Epoch: 2025-10-26T11:09Z
TLE epoch observation values (Epoch: 2025-10-26T11:09:02.176Z)
Latitude
11.51249°
Longitude
161.49857°
Altitude
1,431.898 km
Speed
7.128 km/s
True Right ascension
00h 15m 21s
True Declination
11° 27' 04"
Sunlit
Object was in full shadow at epoch
Visualization orbit readout
Latitude
Unknown
Longitude
Unknown
Altitude
Unknown
Speed
Unknown
Apparent Right ascension
Unknown
Apparent Declination
Unknown
Sunlit
N/A
Visualization observer readout
Local Sidereal Time
13:45:37
Azimuth
Unknown
Elevation
Unknown
Doppler factor
Unknown
Orbital elements
Apogee altitude
1,438.129 km
Perigee altitude
1,336.996 km
Semi-major axis
7,765.699 km
Eccentricity
0.00651
Inclination
101.9531°
RAAN
6.2972°
Arg. of periapsis
154.347°
True anomaly
217.46526°
Mean anomaly
217.9209°
Eccentric anomaly
217.69279°
Mean motion
3.17156 °/min
Orbital period
113.51 mins
BSTAR
0.00013683
Loading maneuver chart data...
Computing Atmospheric mass density...
Loading historical data...
Loading historical data...
Loading historical data...
Loading historical data...
Loading historical data...
Loading historical data...
Loading historical data...
Other satellites on launch #6 in the year 1967 (1967-01-26 UTC)

Documentation

Showing up to 5 results
|